Regional Weather Roundup
Issued by NWS

Home | Current Version | Previous Version | Graphics & Text | Print | Product List | Glossary On
Versions: 1 2 3 4 5 6 7 8 9 10 11 12 13 14 15 16 17 18 19 20 21 22 23 24 25 26 27 28 29 30 31 32 33 34 35 36 37 38 39 40 41 42 43 44 45 46 47 48 49 50
000
ASUS43 KBIS 011510
RWRND

NORTH DAKOTA REGIONAL WEATHER ROUNDUP
NATIONAL WEATHER SERVICE BISMARCK ND
900 AM CST SUN FEB 01 2015

NOTE: "FAIR" INDICATES FEW OR NO CLOUDS BELOW 12,000 FEET WITH NO
SIGNIFICANT WEATHER AND/OR OBSTRUCTIONS TO VISIBILITY.


NDZ001>003-009>011-017-011600-
NORTHWEST NORTH DAKOTA

CITY           SKY/WX    TMP DP  RH WIND       PRES   REMARKS
WILLISTON      MOCLDY   -15 -19  82 SW5       30.50S WCI -27
MINOT          PTCLDY   -10 -17  71 W5        30.50F WCI -22
MINOT AFB      PTCLDY   -13 -19  77 W3        30.49F
$$

NDZ018>021-031>035-040>046-011600-
SOUTHWEST NORTH DAKOTA

CITY           SKY/WX    TMP DP  RH WIND       PRES   REMARKS
BISMARCK       MOCLDY    -7 -17  62 NW10      30.54R WCI -25
DICKINSON      MOCLDY    -9 -13  83 NW3       30.39F
GARRISON         N/A    -13 -19  75 NW6       30.48F WCI -27
HETTINGER ARPT MOCLDY    -5 -10  79 NW5       30.40S WCI -16
$$

NDZ004>008-012>016-024-026-027-054-011600-
NORTHEAST NORTH DAKOTA

CITY           SKY/WX    TMP DP  RH WIND       PRES   REMARKS
GRAND FORKS    MOCLDY   -11 -19  68 N13       30.58S WCI -32
GRND FRKS AFB  PTCLDY   -11 -21  61 N13       30.58S WCI -32
DEVILS LAKE    PTCLDY   -11 -22  58 NW7       30.51R WCI -26
$$

NDZ022-023-025-028>030-036>039-047>053-011600-
SOUTHEAST NORTH DAKOTA

CITY           SKY/WX    TMP DP  RH WIND       PRES   REMARKS
FARGO          CLOUDY    -7 -15  68 N18       30.52R WCI -30
JAMESTOWN      MOCLDY    -8 -17  64 N14       30.48R WCI -29
$$



USA.gov is the U.S. government's official web portal to all federal, state and local government web resources and services.